Startpagina
METAR-TAF:

METAR-TAF

Vliegvelden :

Productieplatform

J6-a, Nederland

breedte: 53-49-27N, lengte: 2-56-43E, hoogte: 34 m

Actueel weer

Dit bericht is 21 minuten geleden gemaakt, om 04:25 UTC
Wind 17 kt uit het noordoosten
Temperatuur 14°C
Vochtigheid 94%
Druk 1002 hPa
Zicht: 2300 m
regenbuien,

METAR: EHJA 220425Z AUTO 04017KT 2300 SHRA FEW000/// BKN001/// BKN002/// 14/13 Q1002

Tijdstip: 06:46 (04:46 UTC)


TAF: ontbreekt

Waarnemingen en weersverwachtingen van meer dan 4000 vliegvelden (METAR en TAF).

De beschikbare stations zijn de gele en rode punten op de kaart.

Ga met uw muis naar het station om de naam te zien.

Klik dan om waarnemingen en weersverwachtingen te zien.

kaart wijzigen: klik op de groene knoppen met een zwart kruis om in te zoomen, op de groene knop met een streepje om uit te zoomen of op de groene pijlen voor aangrenzende kaarten.


METAR-TAF: